WA7ABU-29 Weather Reports


time (UTC)temp
C
wind
direction
speed
KPH
gust
KPH
rain 1hr
cm
rain 24hr
cm
rain mn
cm
humidity
%
barometer
mb
20260506001400 15 351 8.0 11.3 0.00 0.00 0.00 79 996.6
20260506001157 15 345 4.8 8.0 0.00 0.00 0.00 76 997.0
20260506000953 15 332 4.8 6.4 0.00 0.00 0.00 76 997.0
20260506000749 15 5 4.8 8.0 0.00 0.00 0.00 76 996.6
20260506000727 15 347 1.6 3.2 0.00 0.00 0.00 79 997.0
20260506000309 15 343 6.4 8.0 0.00 0.00 0.00 78 997.0
20260506000104 15 321 4.8 6.4 0.00 0.00 0.00 78 997.0
20260505235900 15 330 3.2 6.4 0.00 0.00 0.00 78 997.0
20260505235657 15 352 9.7 12.9 0.00 0.00 0.00 79 997.0
20260505235453 15 343 8.0 11.3 0.00 0.00 0.00 79 997.3
20260505235249 15 327 1.6 3.2 0.00 0.00 0.00 78 997.3
20260505235045 15 285 0.0 3.2 0.00 0.00 0.00 79 997.0
20260505234842 15 335 6.4 9.7 0.00 0.00 0.00 78 997.0
20260505234637 15 152 1.6 3.2 0.00 0.00 0.00 77 997.0
20260505234433 15 344 6.4 8.0 0.00 0.00 0.00 79 997.0
20260505234229 15 338 1.6 1.6 0.00 0.00 0.00 79 997.0
20260505234207 15 322 1.6 3.2 0.00 0.00 0.00 78 997.0
20260505233749 15 295 1.6 4.8 0.00 0.00 0.00 82 997.3
20260505233546 15 310 0.0 3.2 0.00 0.00 0.00 77 997.3
20260505233342 15 341 6.4 8.0 0.00 0.00 0.00 78 997.3
20260505233138 15 338 6.4 8.0 0.00 0.00 0.00 79 997.3
20260505233116 15 335 3.2 4.8 0.00 0.00 0.00 80 997.3
20260505232659 15 327 0.0 1.6 0.00 0.00 0.00 76 997.3
20260505232455 15 344 3.2 6.4 0.00 0.00 0.00 76 997.3
20260505232433 15 347 0.0 1.6 0.00 0.00 0.00 75 997.3
20260505232014 15 7 1.6 4.8 0.00 0.00 0.00 78 997.3
20260505231810 15 312 1.6 3.2 0.00 0.00 0.00 77 997.3
20260505231607 15 345 8.0 8.0 0.00 0.00 0.00 78 997.3
20260505231545 15 335 4.8 6.4 0.00 0.00 0.00 77 997.3
20260505231126 15 327 1.6 3.2 0.00 0.00 0.00 75 997.3
20260505230923 15 327 0.0 1.6 0.00 0.00 0.00 77 997.3
20260505230719 15 328 0.0 0.0 0.00 0.00 0.00 75 997.3
20260505230514 15 340 3.2 4.8 0.00 0.00 0.00 76 997.3
20260505230311 15 3 1.6 3.2 0.00 0.00 0.00 76 997.3
20260505230107 15 340 4.8 6.4 0.00 0.00 0.00 77 997.3
20260505225903 15 354 3.2 3.2 0.00 0.00 0.00 79 997.3
20260505225659 15 335 6.4 8.0 0.00 0.00 0.00 76 997.3
20260505225637 15 355 8.0 9.7 0.00 0.00 0.00 79 997.3
20260505225220 15 353 8.0 11.3 0.00 0.00 0.00 77 997.3
20260505225016 15 341 4.8 9.7 0.00 0.00 0.00 80 997.3
20260505224812 15 262 3.2 6.4 0.00 0.00 0.00 78 997.3
20260505224608 15 309 1.6 3.2 0.00 0.00 0.00 80 997.3
20260505224404 15 322 1.6 3.2 0.00 0.00 0.00 78 997.3
20260505224201 15 356 3.2 4.8 0.00 0.00 0.00 79 997.3
20260505223957 15 340 1.6 3.2 0.00 0.00 0.00 81 997.3
20260505223935 15 337 3.2 4.8 0.00 0.00 0.00 79 997.6
20260505223517 15 334 4.8 6.4 0.00 0.00 0.00 80 997.3
20260505223455 15 337 3.2 3.2 0.00 0.00 0.00 79 997.3
20260505223036 15 338 3.2 4.8 0.00 0.00 0.00 80 997.6
20260505222833 15 344 16.1 17.7 0.00 0.00 0.00 78 997.6
20260505222629 15 338 4.8 8.0 0.00 0.00 0.00 80 997.6
20260505222425 15 302 4.8 6.4 0.00 0.00 0.00 80 997.6
20260505222221 15 344 6.4 6.4 0.00 0.00 0.00 79 997.6
20260505222159 15 357 6.4 8.0 0.00 0.00 0.00 81 997.6
20260505221740 15 352 8.0 11.3 0.00 0.00 0.00 79 997.6
20260505221536 15 339 4.8 4.8 0.00 0.00 0.00 79 997.6
20260505221332 15 326 1.6 3.2 0.00 0.00 0.00 78 997.6
20260505221128 15 337 3.2 4.8 0.00 0.00 0.00 81 997.6
20260505221106 15 341 12.9 17.7 0.00 0.00 0.00 79 997.6
20260505220647 15 348 8.0 11.3 0.00 0.00 0.00 82 997.6
20260505220624 15 331 3.2 4.8 0.00 0.00 0.00 78 997.6
20260505220206 15 337 0.0 1.6 0.00 0.00 0.00 78 998.0
20260505220002 15 339 4.8 9.7 0.00 0.00 0.00 79 997.6
20260505215758 15 342 12.9 16.1 0.00 0.00 0.00 78 997.6
20260505215555 15 340 0.0 3.2 0.00 0.00 0.00 77 997.6
20260505215351 15 7 6.4 9.7 0.00 0.00 0.00 80 997.6
20260505215329 15 0 4.8 8.0 0.00 0.00 0.00 80 997.6
20260505215053 15 338 8.0 11.3 0.00 0.00 0.00 78 997.6
20260505214635 15 351 9.7 11.3 0.00 0.00 0.00 81 997.6
20260505214431 15 319 1.6 3.2 0.00 0.00 0.00 79 997.6
20260505214225 15 330 11.3 14.5 0.00 0.00 0.00 79 997.6
20260505214021 15 330 3.2 4.8 0.00 0.00 0.00 78 997.6
20260505213817 15 323 0.0 1.6 0.00 0.00 0.00 78 997.6
20260505213614 15 321 1.6 3.2 0.00 0.00 0.00 76 997.6
20260505213410 15 317 3.2 6.4 0.00 0.00 0.00 80 998.0
20260505213207 15 275 4.8 6.4 0.00 0.00 0.00 78 997.6
20260505212959 15 335 1.6 1.6 0.00 0.00 0.00 79 997.6
20260505212755 15 339 9.7 11.3 0.00 0.00 0.00 79 997.6
20260505212551 15 328 6.4 9.7 0.00 0.00 0.00 80 997.6
20260505212347 15 264 8.0 11.3 0.00 0.00 0.00 82 997.6
20260505212143 15 188 3.2 3.2 0.00 0.00 0.00 79 997.6
20260505212121 15 258 1.6 8.0 0.00 0.00 0.00 80 997.6
20260505211703 15 346 9.7 14.5 0.00 0.00 0.00 80 997.6
20260505211459 15 336 9.7 11.3 0.00 0.00 0.00 80 998.0
20260505211255 15 334 6.4 8.0 0.00 0.00 0.00 81 997.6
20260505211051 15 344 11.3 12.9 0.00 0.00 0.00 81 998.0
20260505210848 15 319 4.8 6.4 0.00 0.00 0.00 80 997.6
20260505210643 15 350 6.4 8.0 0.00 0.00 0.00 81 997.6
20260505210440 15 346 3.2 9.7 0.00 0.00 0.00 79 998.0
20260505210236 15 260 8.0 11.3 0.00 0.00 0.00 79 998.0
20260505210032 15 4 0.0 1.6 0.00 0.00 0.00 77 997.6
20260505205828 15 290 1.6 3.2 0.00 0.00 0.00 79 997.6
20260505205624 15 282 4.8 6.4 0.00 0.00 0.00 79 998.0
20260505205420 15 265 4.8 11.3 0.00 0.00 0.00 81 998.0
20260505205216 15 286 3.2 4.8 0.00 0.00 0.00 79 998.0
20260505205013 14 246 8.0 9.7 0.00 0.00 0.00 80 998.0
20260505204951 15 300 1.6 3.2 0.00 0.00 0.00 79 998.0
20260505204533 15 340 1.6 4.8 0.00 0.00 0.00 80 997.6
20260505204329 15 269 1.6 6.4 0.00 0.00 0.00 80 997.6
20260505204126 15 331 3.2 6.4 0.00 0.00 0.00 79 998.0
20260505203922 15 265 4.8 8.0 0.00 0.00 0.00 81 998.0
20260505203719 15 82 4.8 11.3 0.00 0.00 0.00 80 998.0
20260505203515 15 314 1.6 3.2 0.00 0.00 0.00 80 998.0
20260505203311 15 279 14.5 19.3 0.00 0.00 0.00 79 998.0
20260505203107 15 321 4.8 8.0 0.00 0.00 0.00 78 998.0
20260505202903 15 270 4.8 9.7 0.00 0.00 0.00 81 998.0
20260505202842 15 335 11.3 14.5 0.00 0.00 0.00 80 998.0
20260505202422 15 271 12.9 14.5 0.00 0.00 0.00 78 998.0
20260505202219 15 319 8.0 9.7 0.00 0.00 0.00 82 998.0
20260505202015 15 311 8.0 14.5 0.00 0.00 0.00 78 998.0
20260505201953 15 313 4.8 14.5 0.00 0.00 0.00 78 998.0
20260505201534 15 287 1.6 3.2 0.00 0.00 0.00 79 998.0
20260505201331 15 318 0.0 1.6 0.00 0.00 0.00 77 998.0
20260505201127 15 288 9.7 11.3 0.00 0.00 0.00 78 998.0
20260505200923 15 238 11.3 14.5 0.00 0.00 0.00 78 998.0
20260505200720 15 269 3.2 9.7 0.00 0.00 0.00 78 998.0
20260505200515 15 301 0.0 3.2 0.00 0.00 0.00 76 998.0
20260505200454 15 276 9.7 11.3 0.00 0.00 0.00 78 998.0
20260505200037 15 336 1.6 3.2 0.00 0.00 0.00 78 998.0
20260505195833 15 291 3.2 6.4 0.00 0.00 0.00 81 997.6
20260505195629 15 336 0.0 3.2 0.00 0.00 0.00 80 998.0
20260505195426 15 338 3.2 6.4 0.00 0.00 0.00 79 998.0
20260505195222 15 332 1.6 3.2 0.00 0.00 0.00 79 998.0
20260505195200 14 294 1.6 3.2 0.00 0.00 0.00 80 998.0
20260505194742 14 244 8.0 9.7 0.00 0.00 0.00 78 998.0
20260505194538 14 292 4.8 8.0 0.00 0.00 0.00 80 998.0
20260505194334 14 267 4.8 8.0 0.00 0.00 0.00 82 998.0
20260505194130 14 347 11.3 12.9 0.00 0.00 0.00 79 998.0
20260505193926 14 336 1.6 3.2 0.00 0.00 0.00 80 998.0
20260505193722 15 326 4.8 8.0 0.00 0.00 0.00 78 997.6
20260505193519 15 200 3.2 3.2 0.00 0.00 0.00 82 998.0
20260505193315 15 298 4.8 8.0 0.00 0.00 0.00 80 998.0
20260505193112 14 291 3.2 4.8 0.00 0.00 0.00 78 998.0
20260505192907 14 306 0.0 3.2 0.00 0.00 0.00 79 998.3
20260505192704 14 297 1.6 4.8 0.00 0.00 0.00 80 998.0
20260505192500 14 292 4.8 6.4 0.00 0.00 0.00 80 998.0
20260505192256 14 341 8.0 11.3 0.00 0.00 0.00 79 998.0
20260505192052 14 330 4.8 8.0 0.00 0.00 0.00 81 998.0
20260505191848 14 341 1.6 3.2 0.00 0.00 0.00 77 998.0
20260505191645 14 310 1.6 3.2 0.00 0.00 0.00 81 998.0
20260505191441 13 138 1.6 3.2 0.00 0.00 0.00 80 998.0
20260505191236 14 255 8.0 9.7 0.00 0.00 0.00 79 998.0
20260505191033 14 200 3.2 3.2 0.00 0.00 0.00 83 998.0
20260505190829 13 303 1.6 3.2 0.00 0.00 0.00 80 998.0
20260505190625 14 195 6.4 8.0 0.00 0.00 0.00 81 998.0
20260505190603 13 261 6.4 8.0 0.00 0.00 0.00 82 998.0
20260505190146 13 269 4.8 4.8 0.00 0.00 0.00 83 998.0
20260505185941 14 177 4.8 4.8 0.00 0.00 0.00 81 998.0
20260505185737 14 166 3.2 4.8 0.00 0.00 0.00 81 998.0
20260505185534 13 328 0.0 1.6 0.00 0.00 0.00 84 998.0
20260505185330 13 323 1.6 3.2 0.00 0.00 0.00 86 998.0
20260505185126 13 307 3.2 3.2 0.00 0.00 0.00 87 998.0
20260505184922 13 182 4.8 8.0 0.00 0.00 0.00 85 998.3
20260505184719 13 215 4.8 8.0 0.00 0.00 0.00 85 998.3
20260505184515 12 285 1.6 3.2 0.00 0.00 0.00 84 998.0
20260505184310 12 188 4.8 4.8 0.00 0.00 0.00 86 998.0
20260505184107 12 180 1.6 3.2 0.00 0.00 0.00 84 998.0
20260505183903 12 172 1.6 3.2 0.00 0.00 0.00 85 998.3
20260505183659 12 190 6.4 8.0 0.00 0.00 0.00 88 998.0
20260505183456 12 201 6.4 9.7 0.00 0.00 0.00 86 998.3
20260505183252 12 204 8.0 8.0 0.00 0.00 0.00 84 998.0
20260505183230 13 283 4.8 6.4 0.00 0.00 0.00 86 998.0
20260505182813 12 261 6.4 8.0 0.00 0.00 0.00 88 998.0
20260505182609 12 293 8.0 9.7 0.00 0.00 0.00 86 998.0
20260505182406 12 288 3.2 4.8 0.00 0.00 0.00 86 998.0
20260505182202 12 208 6.4 8.0 0.00 0.00 0.00 86 998.0
20260505182139 12 239 4.8 6.4 0.00 0.00 0.00 85 998.0
20260505181903 12 199 4.8 6.4 0.00 0.00 0.00 87 998.0
20260505181628 12 263 6.4 8.0 0.00 0.00 0.00 88 998.0
20260505181209 12 301 1.6 3.2 0.00 0.00 0.00 86 998.3
20260505181006 12 312 1.6 3.2 0.00 0.00 0.00 88 998.3
20260505180944 12 242 4.8 8.0 0.00 0.00 0.00 89 998.3
20260505180527 12 189 4.8 6.4 0.00 0.00 0.00 88 998.0
20260505180323 12 194 4.8 6.4 0.00 0.00 0.00 88 998.0
20260505180119 12 205 4.8 6.4 0.00 0.00 0.00 87 998.0
20260505180057 12 188 6.4 8.0 0.00 0.00 0.00 87 998.0
20260505175639 12 169 3.2 4.8 0.00 0.00 0.00 87 998.0
20260505175435 12 355 0.0 1.6 0.00 0.00 0.00 84 998.0
20260505175231 12 157 0.0 1.6 0.00 0.00 0.00 87 998.0
20260505175027 12 156 0.0 1.6 0.00 0.00 0.00 88 998.0
20260505174824 12 164 0.0 0.0 0.00 0.00 0.00 88 998.0
20260505174801 12 164 1.6 3.2 0.00 0.00 0.00 91 998.0
20260505174526 12 148 0.0 3.2 0.00 0.00 0.00 88 998.0
20260505174107 12 193 3.2 3.2 0.00 0.00 0.00 88 998.0
20260505174045 12 168 1.6 3.2 0.00 0.00 0.00 88 998.0
20260505173809 12 179 6.4 8.0 0.00 0.00 0.00 89 997.6
20260505173351 12 171 4.8 6.4 0.00 0.00 0.00 90 998.0
20260505173329 12 157 6.4 8.0 0.00 0.00 0.00 90 997.6
20260505172911 11 157 4.8 6.4 0.00 0.00 0.00 90 998.0
20260505172707 11 169 4.8 6.4 0.00 0.00 0.00 90 998.0
20260505172503 11 136 4.8 6.4 0.00 0.00 0.00 90 998.0
20260505172259 11 173 6.4 8.0 0.00 0.00 0.00 90 998.0
20260505172056 11 137 3.2 3.2 0.00 0.00 0.00 90 998.0
20260505171852 11 179 8.0 8.0 0.00 0.00 0.00 92 997.6
20260505171649 11 155 4.8 6.4 0.00 0.00 0.00 90 998.0
20260505171445 11 184 6.4 8.0 0.00 0.00 0.00 91 998.0
20260505171240 11 164 4.8 8.0 0.00 0.00 0.00 92 998.0
20260505171037 11 190 6.4 8.0 0.00 0.00 0.00 92 998.0
20260505170833 11 189 4.8 6.4 0.00 0.00 0.00 91 998.0
20260505170629 11 177 6.4 8.0 0.00 0.00 0.00 92 998.0
20260505170425 11 189 1.6 3.2 0.00 0.00 0.00 91 998.0
20260505170221 11 170 8.0 8.0 0.00 0.00 0.00 92 998.0
20260505170017 11 170 4.8 6.4 0.00 0.00 0.00 93 998.0
20260505165814 11 159 6.4 8.0 0.00 0.00 0.00 92 997.6
20260505165610 11 213 8.0 8.0 0.00 0.00 0.00 93 997.6
20260505165406 11 178 6.4 8.0 0.00 0.00 0.00 92 997.6
20260505165202 11 189 8.0 9.7 0.00 0.00 0.00 93 998.0
20260505164958 11 171 4.8 4.8 0.00 0.00 0.00 92 997.6
20260505164754 11 207 6.4 8.0 0.00 0.00 0.00 92 997.6
20260505164551 11 180 6.4 8.0 0.00 0.00 0.00 93 998.0
20260505164348 11 179 4.8 4.8 0.00 0.00 0.00 93 997.6
20260505164143 11 210 8.0 9.7 0.00 0.00 0.00 93 998.0
20260505163940 11 183 4.8 4.8 0.00 0.00 0.00 93 997.6
20260505163736 11 209 4.8 6.4 0.00 0.00 0.00 93 997.6
20260505163532 11 171 4.8 4.8 0.00 0.00 0.00 93 997.6
20260505163328 11 191 8.0 8.0 0.00 0.00 0.00 93 998.0
20260505163123 11 183 4.8 8.0 0.00 0.00 0.00 93 997.6
20260505162919 11 165 6.4 6.4 0.00 0.00 0.00 93 997.6
20260505162715 10 159 6.4 8.0 0.00 0.00 0.00 93 997.6
20260505162511 10 180 6.4 8.0 0.00 0.00 0.00 93 997.6
20260505162307 10 187 4.8 4.8 0.00 0.00 0.00 93 997.6
20260505162103 11 197 8.0 9.7 0.00 0.00 0.00 94 997.6
20260505161859 11 161 6.4 8.0 0.00 0.00 0.00 94 997.6
20260505161655 10 183 4.8 4.8 0.00 0.00 0.00 93 997.6
20260505161452 11 165 8.0 8.0 0.00 0.00 0.00 94 997.6
20260505161430 10 166 8.0 8.0 0.00 0.00 0.00 94 997.6
20260505161011 10 165 4.8 4.8 0.00 0.00 0.00 94 997.6
20260505160807 10 195 6.4 8.0 0.00 0.00 0.00 94 997.6
20260505160603 10 195 4.8 6.4 0.00 0.00 0.00 95 997.6
20260505160359 10 201 3.2 3.2 0.00 0.00 0.00 94 997.6
20260505160155 10 162 3.2 4.8 0.00 0.00 0.00 95 997.6
20260505153121 10 195 6.4 8.0 0.00 0.00 0.00 95 997.6
20260505153059 10 204 4.8 6.4 0.00 0.00 0.00 95 997.6
20260505152823 10 180 4.8 6.4 0.00 0.00 0.00 95 997.6
20260505152405 10 206 4.8 6.4 0.00 0.00 0.00 95 997.3
20260505152202 10 171 6.4 8.0 0.00 0.00 0.00 95 997.6
20260505151958 10 177 4.8 6.4 0.00 0.00 0.00 95 997.6
20260505151754 10 200 8.0 8.0 0.00 0.00 0.00 95 997.6
20260505151550 10 232 8.0 9.7 0.00 0.00 0.00 95 997.6
20260505151346 10 198 11.3 11.3 0.00 0.00 0.00 95 997.6
20260505151142 10 178 9.7 9.7 0.00 0.00 0.00 95 997.6
20260505150938 10 196 8.0 9.7 0.00 0.00 0.00 95 997.6
20260505150734 10 229 9.7 11.3 0.00 0.00 0.00 95 997.3
20260505150531 10 211 8.0 8.0 0.00 0.00 0.00 95 997.6
20260505150508 10 234 11.3 11.3 0.00 0.00 0.00 95 997.3
20260505140635 10 183 8.0 9.7 0.00 0.00 0.00 95 997.0
20260505140431 10 187 6.4 8.0 0.00 0.00 0.00 95 997.0
20260505140227 10 170 8.0 11.3 0.00 0.00 0.00 95 997.0
20260505130210 10 161 6.4 8.0 0.00 0.00 0.00 94 996.6
20260505124831 10 157 6.4 8.0 0.00 0.00 0.00 93 996.6
20260505124627 10 139 9.7 9.7 0.00 0.00 0.00 93 996.3
20260505124424 10 160 8.0 8.0 0.00 0.00 0.00 93 996.3
20260505124402 10 141 6.4 8.0 0.00 0.00 0.00 93 996.6
20260505124126 10 143 6.4 8.0 0.00 0.00 0.00 93 996.6
20260505123709 10 156 11.3 11.3 0.00 0.00 0.00 93 996.6
20260505123505 10 160 9.7 11.3 0.00 0.00 0.00 93 996.6
20260505123302 10 160 9.7 11.3 0.00 0.00 0.00 93 996.6
20260505123058 10 133 9.7 11.3 0.00 0.00 0.00 93 996.6
20260505122854 10 135 8.0 9.7 0.00 0.00 0.00 93 996.6
20260505122650 10 143 11.3 12.9 0.00 0.00 0.00 93 996.6
20260505122447 10 150 11.3 11.3 0.00 0.00 0.00 93 996.6
20260505122243 10 163 9.7 11.3 0.00 0.00 0.00 93 996.3
20260505122039 10 155 9.7 11.3 0.00 0.00 0.00 93 996.6
20260505121835 10 152 9.7 11.3 0.00 0.00 0.00 93 996.3
20260505121813 10 146 9.7 11.3 0.00 0.00 0.00 93 996.3
20260505121356 10 153 9.7 9.7 0.00 0.00 0.00 93 996.6
20260505121152 10 164 8.0 9.7 0.00 0.00 0.00 93 996.6
20260505121130 10 157 8.0 8.0 0.00 0.00 0.00 93 996.6
20260505120712 10 186 6.4 8.0 0.00 0.00 0.00 93 996.3
20260505120649 10 191 8.0 11.3 0.00 0.00 0.00 93 996.6
20260505120414 10 180 6.4 8.0 0.00 0.00 0.00 93 996.6
20260505115955 10 164 8.0 9.7 0.00 0.00 0.00 93 996.3
20260505115751 10 153 8.0 9.7 0.00 0.00 0.00 93 996.3
20260505115547 10 157 9.7 11.3 0.00 0.00 0.00 93 996.3
20260505115343 10 181 9.7 11.3 0.00 0.00 0.00 93 996.3
20260505115140 10 157 9.7 11.3 0.00 0.00 0.00 93 996.6
20260505114936 10 166 6.4 8.0 0.00 0.00 0.00 93 996.6
20260505114732 10 152 8.0 8.0 0.00 0.00 0.00 92 996.3
20260505114529 10 166 6.4 8.0 0.00 0.00 0.00 92 996.3
20260505114325 10 156 8.0 8.0 0.00 0.00 0.00 92 996.3
20260505114121 10 174 9.7 11.3 0.00 0.00 0.00 92 996.3
20260505113917 10 126 8.0 11.3 0.00 0.00 0.00 92 995.9
20260505113713 10 153 8.0 8.0 0.00 0.00 0.00 92 996.3
20260505113510 10 160 8.0 8.0 0.00 0.00 0.00 92 996.3
20260505113306 10 175 9.7 11.3 0.00 0.00 0.00 92 996.3
20260505113102 10 190 11.3 11.3 0.00 0.00 0.00 92 996.3
20260505112859 10 155 8.0 9.7 0.00 0.00 0.00 92 996.3
20260505112655 10 175 11.3 12.9 0.00 0.00 0.00 92 996.3
20260505112633 10 191 11.3 12.9 0.00 0.00 0.00 92 996.3
20260505112214 10 175 11.3 12.9 0.00 0.00 0.00 92 996.3
20260505112152 10 171 11.3 12.9 0.00 0.00 0.00 91 996.3
20260505111734 10 153 12.9 16.1 0.00 0.00 0.00 92 996.3
20260505111530 10 172 12.9 12.9 0.00 0.00 0.00 91 996.3
20260505111326 10 158 11.3 11.3 0.00 0.00 0.00 91 996.3
20260505111122 10 183 12.9 16.1 0.00 0.00 0.00 91 996.3
20260505110918 10 151 12.9 16.1 0.00 0.00 0.00 91 996.3
20260505110710 10 152 12.9 14.5 0.00 0.00 0.00 91 996.3
20260505110507 10 155 14.5 16.1 0.00 0.00 0.00 91 996.3
20260505110445 10 148 11.3 11.3 0.00 0.00 0.00 91 996.3
20260505102034 10 153 16.1 19.3 0.00 0.00 0.00 90 996.3
20260505101831 10 154 11.3 12.9 0.00 0.00 0.00 90 995.9
20260505101627 10 160 14.5 16.1 0.00 0.00 0.00 90 995.9
20260505101423 10 155 16.1 17.7 0.00 0.00 0.00 90 995.9
20260505101220 10 161 14.5 16.1 0.00 0.00 0.00 90 995.9
20260505101016 10 144 9.7 11.3 0.00 0.00 0.00 90 996.3
20260505100812 10 159 14.5 16.1 0.00 0.00 0.00 90 995.9
20260505100750 10 149 16.1 17.7 0.00 0.00 0.00 90 995.9
20260505100332 10 168 14.5 17.7 0.00 0.00 0.00 90 995.9
20260505100128 10 153 14.5 16.1 0.00 0.00 0.00 90 995.9
20260505095924 10 167 17.7 22.5 0.00 0.00 0.00 90 995.9
20260505095902 10 172 14.5 16.1 0.00 0.00 0.00 90 995.9
20260505095626 10 147 17.7 20.9 0.00 0.00 0.00 90 995.9
20260505095351 10 170 12.9 14.5 0.00 0.00 0.00 90 995.9
20260505095115 10 162 14.5 16.1 0.00 0.00 0.00 90 995.9
20260505094840 10 166 12.9 14.5 0.00 0.00 0.00 90 995.9
20260505094422 10 157 14.5 16.1 0.00 0.00 0.00 90 995.9
20260505094218 10 167 14.5 16.1 0.00 0.00 0.00 90 995.9
20260505094014 10 165 11.3 12.9 0.00 0.00 0.00 90 995.9
20260505093810 10 156 14.5 16.1 0.00 0.00 0.00 89 995.9
20260505093607 10 171 14.5 16.1 0.00 0.00 0.00 90 995.9
20260505093545 10 167 16.1 19.3 0.00 0.00 0.00 90 995.9
20260505093310 10 159 9.7 11.3 0.00 0.00 0.00 90 995.9
20260505092851 10 174 16.1 17.7 0.00 0.00 0.00 90 995.9
20260505092647 10 164 12.9 14.5 0.00 0.00 0.00 90 995.6
20260505092443 10 161 16.1 16.1 0.00 0.00 0.00 90 995.9
20260505092239 10 163 12.9 16.1 0.00 0.00 0.00 90 995.9
20260505092036 10 149 16.1 19.3 0.00 0.00 0.00 90 995.6
20260505091832 10 161 12.9 14.5 0.00 0.00 0.00 90 995.6
20260505091628 10 175 16.1 17.7 0.00 0.00 0.00 90 995.6
20260505091605 10 161 14.5 16.1 0.00 0.00 0.00 90 995.6
20260505091147 10 162 17.7 19.3 0.00 0.00 0.00 90 995.6
20260505090944 10 148 14.5 17.7 0.00 0.00 0.00 90 995.9
20260505090922 10 155 11.3 11.3 0.00 0.00 0.00 90 995.6
20260505090505 10 154 12.9 14.5 0.00 0.00 0.00 90 995.6
20260505090259 10 162 11.3 11.3 0.00 0.00 0.00 90 995.6
20260505090237 10 148 12.9 16.1 0.00 0.00 0.00 90 995.6
20260505085817 10 158 17.7 19.3 0.00 0.00 0.00 90 995.9
20260505085614 10 150 17.7 19.3 0.00 0.00 0.00 90 995.9
20260505085410 11 180 11.3 12.9 0.00 0.00 0.00 90 995.6
20260505085348 11 160 19.3 20.9 0.00 0.00 0.00 89 995.9
20260505084930 11 166 14.5 17.7 0.00 0.00 0.00 89 995.6
20260505084727 11 165 19.3 22.5 0.00 0.00 0.00 90 995.9
20260505084523 11 199 16.1 17.7 0.00 0.00 0.00 90 995.6
20260505084319 11 156 19.3 20.9 0.00 0.00 0.00 89 995.6
20260505084115 11 174 17.7 20.9 0.00 0.00 0.00 89 995.6
20260505083911 11 156 14.5 16.1 0.00 0.00 0.00 90 995.9
20260505083708 11 158 14.5 16.1 0.00 0.00 0.00 89 995.6
20260505083504 11 153 17.7 20.9 0.00 0.00 0.00 89 995.6
20260505083300 11 163 20.9 24.1 0.00 0.00 0.00 89 995.6
20260505083238 11 138 20.9 22.5 0.00 0.00 0.00 89 995.6
20260505082820 11 155 16.1 19.3 0.00 0.00 0.00 89 995.6
20260505082758 11 130 17.7 19.3 0.00 0.00 0.00 89 995.6
20260505082339 11 151 17.7 19.3 0.00 0.00 0.00 89 995.6
20260505082135 11 156 20.9 22.5 0.00 0.00 0.00 89 995.6
20260505081931 11 165 17.7 17.7 0.00 0.00 0.00 89 995.6
20260505081727 11 155 20.9 20.9 0.00 0.00 0.00 89 995.6
20260505081523 11 155 22.5 24.1 0.00 0.00 0.00 89 995.6
20260505081319 11 164 20.9 22.5 0.00 0.00 0.00 89 995.3
20260505081115 11 149 22.5 29.0 0.00 0.00 0.00 89 995.3
20260505080911 11 146 19.3 24.1 0.00 0.00 0.00 89 995.6
20260505080707 11 150 16.1 19.3 0.00 0.00 0.00 89 995.6
20260505080504 11 174 17.7 17.7 0.00 0.00 0.00 89 995.6
20260505080300 11 165 19.3 22.5 0.00 0.00 0.00 89 995.6
20260505080056 11 167 17.7 19.3 0.00 0.00 0.00 89 995.6
20260505075852 11 166 19.3 22.5 0.00 0.00 0.00 89 995.3
20260505075830 11 149 17.7 20.9 0.00 0.00 0.00 89 995.3
20260505075413 11 159 17.7 19.3 0.00 0.00 0.00 89 995.3
20260505075209 11 152 17.7 20.9 0.00 0.00 0.00 89 995.3
20260505075006 11 144 17.7 20.9 0.00 0.00 0.00 89 995.3
20260505074944 11 154 14.5 16.1 0.00 0.00 0.00 89 995.3
20260505074527 11 135 14.5 17.7 0.00 0.00 0.00 89 995.3
20260505074323 11 172 17.7 20.9 0.00 0.00 0.00 89 995.6
20260505074119 11 153 20.9 22.5 0.00 0.00 0.00 89 995.3
20260505073915 11 161 14.5 17.7 0.00 0.00 0.00 89 995.6
20260505073711 11 161 17.7 20.9 0.00 0.00 0.00 89 995.3
20260505073507 11 173 16.1 16.1 0.00 0.00 0.00 89 995.6
20260505073304 11 173 20.9 25.7 0.00 0.00 0.00 89 995.3
20260505073242 11 161 20.9 22.5 0.00 0.00 0.00 89 995.3
20260505072825 11 142 19.3 22.5 0.00 0.00 0.00 90 995.3
20260505072621 11 155 20.9 22.5 0.00 0.00 0.00 90 995.3
20260505072417 11 169 19.3 24.1 0.00 0.00 0.00 90 995.3
20260505072213 11 156 20.9 20.9 0.00 0.00 0.00 89 995.3
20260505072010 11 174 19.3 20.9 0.00 0.00 0.00 89 995.3
20260505071806 11 159 22.5 24.1 0.00 0.00 0.00 89 995.3
20260505071743 11 165 19.3 22.5 0.00 0.00 0.00 89 995.3
20260505071326 11 153 19.3 20.9 0.00 0.00 0.00 89 995.3
20260505071122 11 167 17.7 20.9 0.00 0.00 0.00 90 995.3
20260505070919 11 126 19.3 22.5 0.00 0.00 0.00 90 995.3
20260505070857 11 152 20.9 22.5 0.00 0.00 0.00 91 994.9
20260505070440 11 164 17.7 19.3 0.00 0.00 0.00 91 995.3
20260505070418 10 156 14.5 17.7 0.00 0.00 0.00 92 995.3
20260505070000 10 146 17.7 17.7 0.00 0.00 0.00 92 995.3
20260505065757 10 166 17.7 20.9 0.00 0.00 0.00 91 994.9
20260505065553 10 150 14.5 16.1 0.00 0.00 0.00 91 995.3
20260505065349 10 166 17.7 19.3 0.00 0.00 0.00 91 995.3
20260505065145 10 168 17.7 17.7 0.00 0.00 0.00 91 995.3
20260505064941 10 155 14.5 16.1 0.00 0.00 0.00 91 995.3
20260505064919 10 159 14.5 16.1 0.00 0.00 0.00 91 995.3
20260505064502 10 186 14.5 16.1 0.00 0.00 0.00 91 994.9
20260505064258 10 163 12.9 14.5 0.00 0.00 0.00 91 995.3
20260505064236 10 161 14.5 16.1 0.00 0.00 0.00 91 994.9
20260505063818 10 162 17.7 19.3 0.00 0.00 0.00 91 994.9
20260505063614 10 165 14.5 16.1 0.00 0.00 0.00 91 994.9
20260505063410 10 155 11.3 12.9 0.00 0.00 0.00 91 994.9
20260505063207 10 162 11.3 14.5 0.00 0.00 0.00 90 994.9
20260505063003 11 174 12.9 12.9 0.00 0.00 0.00 90 995.3
20260505062759 11 162 11.3 12.9 0.00 0.00 0.00 90 994.9
20260505062555 11 183 14.5 17.7 0.00 0.00 0.00 89 995.3
20260505062351 11 164 14.5 17.7 0.00 0.00 0.00 90 994.9
20260505062147 11 163 12.9 14.5 0.00 0.00 0.00 89 994.9
20260505062126 11 155 14.5 17.7 0.00 0.00 0.00 89 995.3
20260505061707 11 132 16.1 17.7 0.00 0.00 0.00 89 995.3
20260505061503 11 126 14.5 19.3 0.00 0.00 0.00 89 994.9
20260505061300 11 159 14.5 19.3 0.00 0.00 0.00 89 994.9
20260505061056 11 143 20.9 22.5 0.00 0.00 0.00 89 994.9
20260505060852 11 164 19.3 20.9 0.00 0.00 0.00 89 994.9
20260505060649 11 134 16.1 17.7 0.00 0.00 0.00 89 994.9
20260505060627 11 144 19.3 20.9 0.00 0.00 0.00 89 994.9
20260505060208 11 168 19.3 22.5 0.00 0.00 0.00 89 994.9
20260505060004 11 149 14.5 16.1 0.00 0.00 0.00 89 994.9
20260505055800 11 143 19.3 22.5 0.00 0.00 0.00 90 994.6
20260505055556 11 145 12.9 16.1 0.00 0.00 0.00 90 994.9
20260505055353 11 131 14.5 16.1 0.00 0.00 0.00 90 994.9
20260505055148 11 174 17.7 20.9 0.00 0.00 0.00 91 994.9
20260505054944 11 155 14.5 16.1 0.00 0.00 0.00 91 994.9
20260505054741 11 145 11.3 12.9 0.00 0.00 0.00 91 994.9
20260505054537 11 176 12.9 14.5 0.00 0.00 0.00 90 994.9
20260505054333 11 164 11.3 11.3 0.00 0.00 0.00 90 994.9
20260505054129 11 143 11.3 11.3 0.00 0.00 0.00 89 994.9
20260505053926 11 164 11.3 11.3 0.00 0.00 0.00 89 995.3
20260505053722 11 183 9.7 11.3 0.00 0.00 0.00 89 994.9
20260505053518 11 161 11.3 14.5 0.00 0.00 0.00 89 994.9
20260505053314 11 173 11.3 11.3 0.00 0.00 0.00 88 995.3
20260505053110 11 177 14.5 14.5 0.00 0.00 0.00 88 994.6
20260505052907 11 173 14.5 14.5 0.00 0.00 0.00 88 994.9
20260505052703 11 167 14.5 16.1 0.00 0.00 0.00 88 994.9
20260505052459 11 179 12.9 12.9 0.00 0.00 0.00 88 994.6
20260505052256 11 184 9.7 11.3 0.00 0.00 0.00 88 994.9
20260505052052 12 180 12.9 16.1 0.00 0.00 0.00 88 994.6
20260505052030 12 184 14.5 17.7 0.00 0.00 0.00 88 994.9
20260505051754 12 164 17.7 19.3 0.00 0.00 0.00 88 994.6
20260505051519 12 172 14.5 16.1 0.00 0.00 0.00 89 994.6
20260505051244 12 156 14.5 16.1 0.00 0.00 0.00 89 994.9
20260505050825 12 176 12.9 14.5 0.00 0.00 0.00 89 994.9
20260505050622 12 169 12.9 14.5 0.00 0.00 0.00 88 994.9
20260505050418 12 163 9.7 11.3 0.00 0.00 0.00 88 994.9
20260505050214 12 176 11.3 12.9 0.00 0.00 0.00 88 994.9
20260505041614 13 180 12.9 12.9 0.00 0.00 0.00 84 994.2
20260505041411 13 158 12.9 14.5 0.00 0.00 0.00 85 994.6
20260505041207 13 166 11.3 11.3 0.00 0.00 0.00 85 994.2
20260505041003 13 157 9.7 11.3 0.00 0.00 0.00 85 994.2
20260505040759 13 190 8.0 9.7 0.00 0.00 0.00 84 994.2
20260505040556 13 184 8.0 9.7 0.00 0.00 0.00 84 993.9
20260505040352 14 164 8.0 11.3 0.00 0.00 0.00 84 994.2
20260505040148 14 170 6.4 6.4 0.00 0.00 0.00 84 993.9
20260505035944 14 181 4.8 6.4 0.00 0.00 0.00 83 993.9
20260505035741 14 179 4.8 4.8 0.00 0.00 0.00 83 993.9
20260505035719 14 190 6.4 8.0 0.00 0.00 0.00 82 993.9
20260505035300 15 195 4.8 6.4 0.00 0.00 0.00 81 993.9
20260505035239 15 191 3.2 4.8 0.00 0.00 0.00 81 993.9
20260505034821 15 180 4.8 6.4 0.00 0.00 0.00 81 993.9
20260505034617 15 210 4.8 6.4 0.00 0.00 0.00 80 993.6
20260505034413 15 208 4.8 6.4 0.00 0.00 0.00 80 993.9
20260505034210 15 195 3.2 4.8 0.00 0.00 0.00 80 993.6
20260505034006 15 196 6.4 8.0 0.00 0.00 0.00 80 993.6
20260505033802 15 203 8.0 11.3 0.00 0.00 0.00 80 993.6
20260505033559 15 177 4.8 6.4 0.00 0.00 0.00 80 993.6
20260505033355 15 161 3.2 4.8 0.00 0.00 0.00 80 993.6
20260505033151 15 176 1.6 3.2 0.00 0.00 0.00 80 993.6
20260505032947 15 231 4.8 6.4 0.00 0.00 0.00 80 993.6
20260505032743 15 281 3.2 4.8 0.00 0.00 0.00 80 993.6
20260505032540 15 256 6.4 8.0 0.00 0.00 0.00 79 993.6
20260505032336 15 238 4.8 6.4 0.00 0.00 0.00 79 993.6
20260505032132 16 238 4.8 6.4 0.00 0.00 0.00 78 993.6
20260505032110 16 217 6.4 8.0 0.00 0.00 0.00 78 993.6
20260505031834 16 233 14.5 16.1 0.00 0.00 0.00 77 993.6
20260505031600 16 232 9.7 11.3 0.00 0.00 0.00 77 993.2
20260505031140 16 191 14.5 16.1 0.00 0.00 0.00 77 993.2
20260505030937 16 236 11.3 12.9 0.00 0.00 0.00 78 993.2
20260505030733 16 227 9.7 11.3 0.00 0.00 0.00 77 993.2
20260505030711 16 224 9.7 12.9 0.00 0.00 0.00 78 992.9
20260505030253 16 223 9.7 11.3 0.00 0.00 0.00 78 993.2
20260505030049 16 201 9.7 11.3 0.00 0.00 0.00 79 992.9
20260505025845 16 180 8.0 9.7 0.00 0.00 0.00 80 992.9
20260505025641 16 185 8.0 9.7 0.00 0.00 0.00 80 992.9
20260505025437 17 192 8.0 8.0 0.00 0.00 0.00 80 992.9
20260505025233 17 184 11.3 11.3 0.00 0.00 0.00 79 992.9
20260505025029 17 152 9.7 11.3 0.00 0.00 0.00 79 992.9
20260505024825 17 183 12.9 16.1 0.00 0.00 0.00 79 992.6
20260505024621 17 173 11.3 12.9 0.00 0.00 0.00 80 992.9
20260505024418 17 178 12.9 16.1 0.00 0.00 0.00 79 992.6
20260505024356 17 159 12.9 14.5 0.00 0.00 0.00 79 992.9
20260505023938 17 174 9.7 11.3 0.00 0.00 0.00 79 992.9
20260505023734 17 173 11.3 11.3 0.00 0.00 0.00 79 992.6
20260505023531 17 196 14.5 16.1 0.00 0.00 0.00 78 992.9
20260505023327 17 155 11.3 12.9 0.00 0.00 0.00 78 992.6
20260505023305 18 193 9.7 11.3 0.00 0.00 0.00 78 992.9
20260505022846 18 183 12.9 16.1 0.00 0.00 0.00 77 992.6
20260505022642 18 183 9.7 11.3 0.00 0.00 0.00 78 992.6
20260505022438 18 169 9.7 11.3 0.00 0.00 0.00 78 992.9
20260505022234 18 165 9.7 11.3 0.00 0.00 0.00 77 992.9
20260505022031 18 184 14.5 16.1 0.00 0.00 0.00 75 992.6
20260505022009 18 180 11.3 12.9 0.00 0.00 0.00 75 992.9
20260505021551 18 172 11.3 11.3 0.00 0.00 0.00 75 992.6
20260505021347 18 181 12.9 12.9 0.00 0.00 0.00 74 992.6
20260505021144 18 168 11.3 11.3 0.00 0.00 0.00 73 992.6
20260505020939 18 178 11.3 11.3 0.00 0.00 0.00 74 992.9
20260505020918 18 180 11.3 14.5 0.00 0.00 0.00 73 992.6
20260505020500 18 169 11.3 12.9 0.00 0.00 0.00 73 992.9
20260505020256 19 159 11.3 12.9 0.00 0.00 0.00 73 992.6
20260505020052 19 173 11.3 14.5 0.00 0.00 0.00 73 992.9
20260505015848 19 164 11.3 11.3 0.00 0.00 0.00 72 992.9
20260505015826 19 163 12.9 14.5 0.00 0.00 0.00 71 992.6
20260505015408 19 171 11.3 12.9 0.00 0.00 0.00 70 992.9
20260505015204 19 156 12.9 14.5 0.00 0.00 0.00 71 992.6
20260505015142 19 151 9.7 11.3 0.00 0.00 0.00 70 992.6
20260505014725 19 175 9.7 11.3 0.00 0.00 0.00 70 992.9
20260505014521 19 171 8.0 11.3 0.00 0.00 0.00 70 992.9
20260505014318 19 150 12.9 12.9 0.00 0.00 0.00 69 992.9
20260505014114 19 164 11.3 11.3 0.00 0.00 0.00 68 992.9
20260505013910 19 191 12.9 14.5 0.00 0.00 0.00 69 992.9
20260505013706 19 146 14.5 16.1 0.00 0.00 0.00 69 992.9
20260505013503 19 196 9.7 11.3 0.00 0.00 0.00 68 992.9
20260505013259 19 181 9.7 11.3 0.00 0.00 0.00 70 992.9
20260505013055 19 193 11.3 11.3 0.00 0.00 0.00 68 992.9
20260505012852 19 186 9.7 11.3 0.00 0.00 0.00 71 992.9
20260505012647 19 182 8.0 8.0 0.00 0.00 0.00 68 992.9
20260505012444 19 186 9.7 11.3 0.00 0.00 0.00 69 992.9
20260505012422 20 168 11.3 12.9 0.00 0.00 0.00 69 992.9
20260505012146 19 141 9.7 11.3 0.00 0.00 0.00 70 992.9
20260505011728 19 182 6.4 8.0 0.00 0.00 0.00 69 992.9
20260505011524 19 190 9.7 11.3 0.00 0.00 0.00 69 992.9
20260505011321 19 189 8.0 12.9 0.00 0.00 0.00 68 993.2
20260505011116 19 189 6.4 8.0 0.00 0.00 0.00 68 992.9
20260505010913 19 211 8.0 12.9 0.00 0.00 0.00 69 993.2
20260505010709 19 183 8.0 11.3 0.00 0.00 0.00 68 993.2
20260505010505 19 188 11.3 14.5 0.00 0.00 0.00 68 993.2
20260505010301 19 199 9.7 11.3 0.00 0.00 0.00 68 992.9
20260505010057 19 170 8.0 9.7 0.00 0.00 0.00 69 993.2
20260505005854 19 191 6.4 8.0 0.00 0.00 0.00 70 993.2
20260505005832 19 199 9.7 9.7 0.00 0.00 0.00 67 993.2
20260505005414 19 188 14.5 14.5 0.00 0.00 0.00 67 992.9
20260505005210 19 174 11.3 12.9 0.00 0.00 0.00 70 993.2
20260505005006 19 185 14.5 16.1 0.00 0.00 0.00 68 993.2
20260505004802 19 173 8.0 9.7 0.00 0.00 0.00 68 993.2
20260505004740 19 203 11.3 11.3 0.00 0.00 0.00 68 993.2
20260505004300 20 154 12.9 16.1 0.00 0.00 0.00 67 993.2
20260505003842 20 154 12.9 16.1 0.00 0.00 0.00 67 993.2
20260505003638 19 169 8.0 9.7 0.00 0.00 0.00 66 993.2
20260505003435 19 194 8.0 11.3 0.00 0.00 0.00 67 993.2
20260505003231 19 193 11.3 11.3 0.00 0.00 0.00 66 993.2
20260505003209 19 162 6.4 9.7 0.00 0.00 0.00 67 993.2
20260505002750 19 184 11.3 12.9 0.00 0.00 0.00 67 993.2
20260505002546 19 215 9.7 11.3 0.00 0.00 0.00 65 993.2
20260505002343 19 165 9.7 11.3 0.00 0.00 0.00 68 993.2
20260505002139 19 154 11.3 12.9 0.00 0.00 0.00 66 993.6
20260505001936 19 152 14.5 17.7 0.00 0.00 0.00 67 993.2
20260505001732 19 179 8.0 8.0 0.00 0.00 0.00 69 993.2